Time,TemperatureF,DewpointF,PressureIn,WindDirection,WindDirectionDegrees,WindSpeedMPH,WindSpeedGustMPH,Humidity,HourlyPrecipIn,Conditions,Clouds,dailyrainin,SoftwareType,DateUTC
2013-07-07 18:00:00,87.1,33.8,29.94,North,0,0.0,0.0,15,0.00,FEW,OVC,0.00,WeatherDisplay:10.37,2013-07-07 23:00:00,
2013-07-07 18:01:00,87.1,33.8,29.94,North,0,0.0,0.0,15,0.00,FEW,OVC,0.00,WeatherDisplay:10.37,2013-07-07 23:01:00,
2013-07-07 18:02:00,87.1,33.8,29.94,North,0,0.0,0.0,15,0.00,FEW,OVC,0.00,WeatherDisplay:10.37,2013-07-07 23:02:00,
2013-07-07 18:03:00,86.9,33.7,29.94,North,0,0.0,0.0,15,0.00,FEW,OVC,0.00,WeatherDisplay:10.37,2013-07-07 23:03:00,
2013-07-07 18:08:00,86.7,18.3,29.94,North,0,0.0,0.0,8,0.00,FEW,OVC,0.00,WeatherDisplay:10.37,2013-07-07 23:08:00,
2013-07-07 18:13:00,86.9,18.5,29.94,North,0,0.0,0.0,8,0.00,FEW,OVC,0.00,WeatherDisplay:10.37,2013-07-07 23:13:00,
2013-07-07 18:18:00,86.7,18.3,29.94,North,0,0.0,0.0,8,0.00,CLR,OVC,0.00,WeatherDisplay:10.37,2013-07-07 23:18:00,
2013-07-07 18:23:00,86.5,18.2,29.94,North,0,0.0,0.0,8,0.00,CLR,OVC,0.00,WeatherDisplay:10.37,2013-07-07 23:23:00,
2013-07-07 18:28:00,86.2,17.9,29.94,North,0,0.0,0.0,8,0.00,CLR,OVC,0.00,WeatherDisplay:10.37,2013-07-07 23:28:00,
2013-07-07 18:33:00,86.0,17.8,29.94,North,0,0.0,0.0,8,0.00,CLR,OVC,0.00,WeatherDisplay:10.37,2013-07-07 23:33:00,
2013-07-07 18:38:00,85.6,17.5,29.94,North,0,0.0,0.0,8,0.00,CLR,OVC,0.00,WeatherDisplay:10.37,2013-07-07 23:38:00,
2013-07-07 18:43:00,85.5,17.4,29.94,North,0,0.0,0.0,8,0.00,CLR,OVC,0.00,WeatherDisplay:10.37,2013-07-07 23:43:00,
2013-07-07 18:48:00,85.5,17.4,29.94,North,0,0.0,0.0,8,0.00,CLR,OVC,0.00,WeatherDisplay:10.37,2013-07-07 23:48:00,
2013-07-07 18:53:00,85.3,17.3,29.94,North,0,0.0,0.0,8,0.00,CLR,OVC,0.00,WeatherDisplay:10.37,2013-07-07 23:53:00,
2013-07-07 18:58:00,85.3,17.3,29.94,North,0,0.0,0.0,8,0.00,CLR,OVC,0.00,WeatherDisplay:10.37,2013-07-07 23:58:00,
2013-07-07 19:03:00,85.1,17.1,29.94,North,0,0.0,0.0,8,0.00,CLR,OVC,0.00,WeatherDisplay:10.37,2013-07-08 00:03:00,
2013-07-07 19:08:00,84.9,17.0,29.94,North,0,0.0,0.0,8,0.00,CLR,OVC,0.00,WeatherDisplay:10.37,2013-07-08 00:08:00,
2013-07-07 19:13:00,84.9,17.0,29.94,North,0,0.0,0.0,8,0.00,CLR,OVC,0.00,WeatherDisplay:10.37,2013-07-08 00:13:00,
2013-07-07 19:18:00,84.6,16.7,29.94,North,0,0.0,0.0,8,0.00,CLR,OVC,0.00,WeatherDisplay:10.37,2013-07-08 00:18:00,
2013-07-07 19:23:00,84.4,24.1,29.94,North,0,0.0,0.0,11,0.00,CLR,OVC,0.00,WeatherDisplay:10.37,2013-07-08 00:23:00,
2013-07-07 19:28:00,84.0,23.8,29.94,North,0,0.0,0.0,11,0.00,CLR,OVC,0.00,WeatherDisplay:10.37,2013-07-08 00:28:00,
2013-07-07 19:33:00,84.0,23.8,29.94,North,0,0.0,0.0,11,0.00,CLR,OVC,0.00,WeatherDisplay:10.37,2013-07-08 00:33:00,
2013-07-07 19:38:00,84.0,23.8,29.94,North,0,0.0,0.0,11,0.00,CLR,OVC,0.00,WeatherDisplay:10.37,2013-07-08 00:38:00,
2013-07-07 19:43:00,83.8,23.7,29.94,North,0,0.0,0.0,11,0.00,CLR,OVC,0.00,WeatherDisplay:10.37,2013-07-08 00:43:00,
2013-07-07 19:48:00,83.7,23.6,29.94,North,0,0.0,0.0,11,0.00,CLR,OVC,0.00,WeatherDisplay:10.37,2013-07-08 00:48:00,
2013-07-07 19:53:00,83.5,29.2,29.94,North,0,0.0,0.0,14,0.00,CLR,OVC,0.00,WeatherDisplay:10.37,2013-07-08 00:53:00,
2013-07-07 20:37:00,82.9,30.5,29.94,North,0,0.0,0.0,15,0.00,CLR,OVC,0.00,WeatherDisplay:10.37,2013-07-08 01:37:00,
2013-07-07 20:42:00,82.8,28.7,29.94,North,0,0.0,0.0,14,0.00,CLR,OVC,0.00,WeatherDisplay:10.37,2013-07-08 01:42:00,
2013-07-07 20:47:00,82.6,28.5,29.94,North,0,0.0,0.0,14,0.00,CLR,OVC,0.00,WeatherDisplay:10.37,2013-07-08 01:47:00,
2013-07-07 20:52:00,82.4,28.4,29.94,North,0,0.0,0.0,14,0.00,CLR,OVC,0.00,WeatherDisplay:10.37,2013-07-08 01:52:00,
2013-07-07 20:57:00,82.2,28.3,29.94,North,0,0.0,0.0,14,0.00,CLR,OVC,0.00,WeatherDisplay:10.37,2013-07-08 01:57:00,
2013-07-07 21:02:00,82.0,28.1,29.94,North,0,0.0,0.0,14,0.00,BKN,OVC,0.00,WeatherDisplay:10.37,2013-07-08 02:02:00,
2013-07-07 21:07:00,81.9,28.0,29.94,North,0,0.0,0.0,14,0.00,BKN,OVC,0.00,WeatherDisplay:10.37,2013-07-08 02:07:00,
2013-07-07 21:12:00,81.9,28.0,29.94,North,0,0.0,0.0,14,0.00,BKN,OVC,0.00,WeatherDisplay:10.37,2013-07-08 02:12:00,
2013-07-07 21:17:00,81.7,27.8,29.94,North,0,0.0,0.0,14,0.00,BKN,OVC,0.00,WeatherDisplay:10.37,2013-07-08 02:17:00,
2013-07-07 21:22:00,81.7,32.6,29.94,North,0,0.0,0.0,17,0.00,BKN,OVC,0.00,WeatherDisplay:10.37,2013-07-08 02:22:00,
2013-07-07 21:27:00,81.5,32.5,29.94,North,0,0.0,0.0,17,0.00,BKN,OVC,0.00,WeatherDisplay:10.37,2013-07-08 02:27:00,
2013-07-07 21:32:00,81.3,32.3,29.94,North,0,0.0,0.0,17,0.00,BKN,OVC,0.00,WeatherDisplay:10.37,2013-07-08 02:32:00,
2013-07-07 21:37:00,81.1,32.2,29.94,North,0,0.0,0.0,17,0.00,BKN,OVC,0.00,WeatherDisplay:10.37,2013-07-08 02:37:00,
2013-07-07 21:42:00,81.0,34.8,29.94,North,0,0.0,0.0,19,0.00,BKN,OVC,0.00,WeatherDisplay:10.37,2013-07-08 02:42:00,
2013-07-07 21:47:00,80.8,34.7,29.94,North,0,0.0,0.0,19,0.00,BKN,OVC,0.00,WeatherDisplay:10.37,2013-07-08 02:47:00,
2013-07-07 21:52:00,80.6,34.5,29.94,North,0,0.0,0.0,19,0.00,BKN,OVC,0.00,WeatherDisplay:10.37,2013-07-08 02:52:00,
2013-07-07 21:57:00,80.4,35.7,29.94,North,0,0.0,0.0,20,0.00,BKN,OVC,0.00,WeatherDisplay:10.37,2013-07-08 02:57:00,
2013-07-07 22:02:00,80.2,35.5,29.94,North,0,0.0,0.0,20,0.00,CLR,OVC,0.00,WeatherDisplay:10.37,2013-07-08 03:02:00,
2013-07-07 22:07:00,79.9,35.2,29.94,North,0,0.0,0.0,20,0.00,CLR,OVC,0.00,WeatherDisplay:10.37,2013-07-08 03:07:00,
2013-07-07 22:12:00,79.7,35.1,29.94,North,0,0.0,0.0,20,0.00,CLR,OVC,0.00,WeatherDisplay:10.37,2013-07-08 03:12:00,
2013-07-07 22:17:00,79.5,34.9,29.94,North,0,0.0,0.0,20,0.00,CLR,OVC,0.00,WeatherDisplay:10.37,2013-07-08 03:17:00,
2013-07-07 22:22:00,79.3,34.8,29.94,North,0,0.0,0.0,20,0.00,CLR,OVC,0.00,WeatherDisplay:10.37,2013-07-08 03:22:00,
2013-07-07 22:27:00,79.3,36.0,29.94,North,0,0.0,0.0,21,0.00,CLR,OVC,0.00,WeatherDisplay:10.37,2013-07-08 03:27:00,
2013-07-07 22:32:00,79.2,35.8,29.94,North,0,0.0,0.0,21,0.00,CLR,OVC,0.00,WeatherDisplay:10.37,2013-07-08 03:32:00,
2013-07-07 22:37:00,79.2,35.8,29.94,North,0,0.0,0.0,21,0.00,CLR,OVC,0.00,WeatherDisplay:10.37,2013-07-08 03:37:00,
2013-07-07 22:42:00,79.2,35.8,29.97,North,0,0.0,0.0,21,0.00,CLR,OVC,0.00,WeatherDisplay:10.37,2013-07-08 03:42:00,
2013-07-07 22:47:00,79.2,35.8,29.97,North,0,0.0,0.0,21,0.00,CLR,OVC,0.00,WeatherDisplay:10.37,2013-07-08 03:47:00,
2013-07-07 22:52:00,79.2,35.8,29.97,North,0,0.0,0.0,21,0.00,CLR,OVC,0.00,WeatherDisplay:10.37,2013-07-08 03:52:00,
2013-07-07 22:57:00,79.2,35.8,29.97,North,0,0.0,0.0,21,0.00,CLR,OVC,0.00,WeatherDisplay:10.37,2013-07-08 03:57:00,
2013-07-07 23:01:00,79.3,36.0,29.97,North,0,0.0,0.0,21,0.00,CLR,OVC,0.00,WeatherDisplay:10.37,2013-07-08 04:01:00,
2013-07-07 23:02:00,79.3,36.0,29.97,North,0,0.0,0.0,21,0.00,CLR,OVC,0.00,WeatherDisplay:10.37,2013-07-08 04:02:00,
2013-07-07 23:04:00,79.2,35.8,29.97,North,0,0.0,0.0,21,0.00,CLR,OVC,0.00,WeatherDisplay:10.37,2013-07-08 04:04:00,
2013-07-07 23:09:00,79.2,35.8,29.97,North,0,0.0,0.0,21,0.00,CLR,OVC,0.00,WeatherDisplay:10.37,2013-07-08 04:09:00,
2013-07-07 23:14:00,79.3,36.0,29.97,North,0,0.0,0.0,21,0.00,CLR,OVC,0.00,WeatherDisplay:10.37,2013-07-08 04:14:00,
2013-07-07 23:19:00,79.2,35.8,29.97,North,0,0.0,0.0,21,0.00,CLR,OVC,0.00,WeatherDisplay:10.37,2013-07-08 04:19:00,
2013-07-07 23:24:00,79.2,35.8,29.97,North,0,0.0,0.0,21,0.00,CLR,OVC,0.00,WeatherDisplay:10.37,2013-07-08 04:24:00,
2013-07-07 23:29:00,79.0,35.7,29.97,North,0,0.0,0.0,21,0.00,CLR,OVC,0.00,WeatherDisplay:10.37,2013-07-08 04:29:00,
2013-07-07 23:34:00,79.0,35.7,29.97,North,0,0.0,0.0,21,0.00,CLR,OVC,0.00,WeatherDisplay:10.37,2013-07-08 04:34:00,
2013-07-07 23:39:00,79.0,35.7,29.97,North,0,0.0,0.0,21,0.00,CLR,OVC,0.00,WeatherDisplay:10.37,2013-07-08 04:39:00,
2013-07-07 23:44:00,78.8,35.5,29.97,North,0,0.0,0.0,21,0.00,CLR,OVC,0.00,WeatherDisplay:10.37,2013-07-08 04:44:00,
2013-07-07 23:49:00,78.8,35.5,29.97,North,0,0.0,0.0,21,0.00,CLR,OVC,0.00,WeatherDisplay:10.37,2013-07-08 04:49:00,
2013-07-07 23:54:00,78.8,35.5,29.97,North,0,0.0,0.0,21,0.00,CLR,OVC,0.00,WeatherDisplay:10.37,2013-07-08 04:54:00,
2013-07-07 23:59:00,78.6,35.4,29.97,North,0,0.0,0.0,21,0.00,CLR,OVC,0.00,WeatherDisplay:10.37,2013-07-08 04:59:00,